Volver al catálogo

STARLINK-35894

ActivoComunicacionesVLEO
NORAD 66500·PAYLOAD·🇺🇸 United States

Lanzado Nov 15, 2025 desde Cape Canaveral Space Force Station

Loading…

Próximos Pases (próximas 24 horas)

TLE

ActualizadoSource: CelesTrak SupGP

Época: Sep 14, 2026, 20:56 UTC

1 66500C 25263R   26257.87270833  .00019824  00000+0  71802-3 0  2576
2 66500  43.0036   5.7250 0001651 269.6078  45.2246 15.27568074    14

Sigue STARLINK-35894 en tiempo real con AllMySat

Download on the App Store